Regional Weather Roundup
Issued by NWS

Home | Current Version | Previous Version | Graphics & Text | Print | Product List | Glossary On
Versions: 1 2 3 4 5 6 7 8 9 10 11 12 13 14 15 16 17 18 19 20 21 22 23 24 25 26 27 28 29 30 31 32 33 34 35 36 37 38 39 40 41 42 43 44 45 46 47 48 49 50
000
ASUS43 KMPX 211510
RWRMN
WEATHER ROUNDUP FOR MINNESOTA
NATIONAL WEATHER SERVICE TWIN CITIES/CHANHASSEN MN
900 AM CST SAT JAN 21 2017


NOTE: "FAIR" INDICATES FEW OR NO CLOUDS BELOW 12,000 FEET WITH NO
SIGNIFICANT WEATHER AND/OR OBSTRUCTIONS TO VISIBILITY. N/A MEANS
CURRENT SKY AND/OR WEATHER CONDITIONS ARE NOT AVAILABLE.

MNZ060>063-068>070-211600-
   Twin Cities Metro

CITY           SKY/WX    TMP DP  RH WIND       PRES   REMARKS
TWIN CITIES    DRIZZLE   35  33  92 NE5       29.42S FOG     WCI  31
ST PAUL        CLOUDY    36  35  96 E7        29.44S
CRYSTAL        CLOUDY    35  32  88 E5        29.41F FOG     WCI  31
BLAINE         CLOUDY    37  37 100 E7        29.42F FOG
LAKEVILLE      FOG       32  32 100 E5        29.41S VSB 1   WCI  27
EDEN PRAIRIE   CLOUDY    35  34  96 E5        29.41R FOG     WCI  31
SOUTH ST PAUL  CLOUDY    36  35  99 E3        29.42S FOG
LAKE ELMO      MIX PCPN  34  34 100 NE8       29.43F WCI  27
$$
MNZ001>005-007-008-013>017-022>024-027-028-211600-
   Northwest Minnesota

CITY           SKY/WX    TMP DP  RH WIND       PRES   REMARKS
BEMIDJI        FOG       32  32 100 E3        29.44F VSB 1/2
HALLOCK        CLOUDY    36  34  93 SE6       29.43S
ROSEAU         DRIZZLE   36  30  80 SE7       29.46S
WARROAD        CLOUDY    34  30  86 E6        29.48S WCI  29
THIEF RVR FALL CLOUDY    34  33  96 E12       29.44S WCI  25
CROOKSTON      CLOUDY    36  34  93 SE8       29.43S
FOSSTON        CLOUDY    34  32  93 E10       29.43S WCI  26
DETROIT LAKES  DRIZZLE   34  34 100 SE3       29.42S
MOORHEAD       CLOUDY    36  32  87 E5        29.41S
PARK RAPIDS    FOG       34  32  92 E5        29.43R VSB 1/4 WCI  30
MAHNOMEN       CLOUDY    34  32  94 E7        29.42R WCI  28
$$
MNZ006-009>011-018-025>026-211600-
   North Central Minnesota

CITY           SKY/WX    TMP DP  RH WIND       PRES   REMARKS
BAUDETTE       CLOUDY    33  33 100 E7        29.47S FOG     WCI  27
FLAG ISLAND    FOG       34  32  93 SE5       29.49R VSB 1/2 WCI  30
INTL FALLS     FOG       33  32  96 E7        29.50S VSB 1   WCI  27
WASKISH        CLOUDY    36  34  93 E5        29.47S
BIG FORK       CLOUDY    34  34 100 E3        29.48S FOG
LONGVILLE      CLOUDY    34  34 100 CALM      29.45R FOG
GRAND RAPIDS   FOG       33  33 100 E5        29.48R VSB 1/4 WCI  29
CRANE LAKE     CLOUDY    34  32  93 CALM      29.53S
ORR            CLOUDY    34  30  86 CALM      29.47F FOG
COOK           CLOUDY    34  34 100 E3        29.50S FOG
WALKER         FOG       32  32  99 E5        29.44F VSB 1/4 WCI  28
$$
MNZ012-019>021-037-211600-
   Northeast Minnesota

CITY           SKY/WX    TMP DP  RH WIND       PRES   REMARKS
DULUTH         DRZL/FOG  34  34 100 E9        29.47F VSB 1/16WCI  27
ELY            LGT RAIN  34  34 100 NE3       29.50F
HIBBING        FOG       32  32 100 E5        29.47F VSB 3/4 WCI  27
EVELETH        FOG       34  33  99 E3        29.49F VSB 1/4
DULUTH HARBOR  CLOUDY    34  34 100 NE10      29.51S WCI  26
TWO HARBORS    HAZE      37  32  81 E6        29.49S VSB 1/4
SILVER BAY     CLOUDY    36  36 100 E6        29.50S FOG
GRAND MARAIS     N/A     37  36  96 NE7       29.56F
G MARAIS ARPRT FOG       30  28  93 E5        29.52F VSB<1/4 WCI  25
$$
MNZ029>031-032-039>041-046>048-054>057-064-211600-
   West Central Minnesota

CITY           SKY/WX    TMP DP  RH WIND       PRES   REMARKS
FERGUS FALLS   CLOUDY    36  36 100 E9        29.44R
WHEATON        FOG       41  41 100 E8        29.41S VSB 3/4
MORRIS         FOG       34  34 100 E10       29.39R VSB 1/2 WCI  26
ALEXANDRIA     FOG       33  33 100 E12       29.41R VSB 1   WCI  24
ELBOW LAKE     CLOUDY    33  33 100 SE10      29.41R FOG     WCI  25
WADENA         FOG       32  32 100 E7        29.42S VSB 1/4 WCI  26
GLENWOOD       FOG       34  34 100 E10       29.41S VSB<1/4 WCI  26
APPLETON       CLOUDY    36  34  93 SE6       29.39R FOG
BENSON         CLOUDY    36  34  93 SE8       29.40S
ORTONVILLE     FOG       34  30  86 CALM      29.39R VSB 1/2
MADISON        CLOUDY    36  36 100 SE6       29.39R FOG
WILLMAR        FOG       36  36 100 E7        29.41S VSB 1
$$
MNZ033>034-036-042>043-049>051-058-059-211600-
   Central Minnesota

CITY           SKY/WX    TMP DP  RH WIND       PRES   REMARKS
ST CLOUD       FOG       34  34 100 E6        29.42S VSB 1/4 WCI  29
SAUK CENTRE    FOG       32  32 100 E5        29.42R VSB 1/4 WCI  28
PAYNESVILLE    FOG       33  33 100 E6        29.42R VSB 1/2 WCI  28
AITKIN         FOG       36  34  93 E5        29.45R VSB 1/4
PINE RIVER     CLOUDY    34  34 100 E6        29.49R FOG     WCI  29
BRAINERD       FOG       33  33 100 VRB5      29.45R VSB 1/4 WCI  29
STAPLES        FOG       34  34 100 E3        29.44R VSB 3/4
LONG PRAIRIE   SNOW      32  32 100 NE3       29.42S VSB 1/4
LITTLE FALLS   FOG       32  32 100 CALM      29.43F VSB 3/4
LITCHFIELD     DRIZZLE   36  36 100 E6        29.41S
BUFFALO        CLOUDY    34  33  96 NE7       29.43S FOG     WCI  28
MAPLE LAKE     FOG       35  35 100 E8        29.42F VSB 3/4 WCI  28
HUTCHINSON     DRIZZLE   35  35 100 E7        29.41S WCI  29
$$
MNZ037-044-045-052-053-211600-
   East Central Minnesota

CITY           SKY/WX    TMP DP  RH WIND       PRES   REMARKS
PRINCETON      FOG       36  36 100 E6        29.43F VSB 1
MORA           CLOUDY    34  32  93 E3        29.47S FOG
CAMBRIDGE      LGT SNOW  36  36 100 NE5       29.42F VSB 1
RUSH CITY      FOG       34  32  93 E3        29.45S VSB 1/2
MOOSE LAKE     CLOUDY    34  32  93 CALM      29.45S FOG
HINCKLEY       CLOUDY    34  34 100 NE3       29.46S FOG
CLOQUET        FOG       34  34 100 E8        29.47S VSB<1/4 WCI  27
MCGREGOR       CLOUDY    34  34 100 E5        29.47R VSB 1/2 WCI  30
$$
MNZ071>073-080-081-089-090-097-098-211600-
   Southwest Minnesota

CITY           SKY/WX    TMP DP  RH WIND       PRES   REMARKS
MONTEVIDEO     FOG       34  34 100 SE7       29.40R VSB 1/4 WCI  28
GRANITE FALLS  FOG       35  35  99 E6        29.40R VSB 1/2 WCI  30
CANBY          FOG       34  34 100 CALM      29.39R VSB 1/4
MARSHALL       FOG       33  33 100 SE6       29.38S VSB 1   WCI  28
REDWOOD FALLS  FOG       34  32  92 E7        29.38S VSB 1/4 WCI  28
OLIVIA         DRZL/FOG  34  34 100 E6        29.39S VSB 1   WCI  29
PIPESTONE      FOG       36  36 100 SE5       29.34S VSB<1/4
WINDOM         FOG       36  34  93 CALM      29.37S VSB 1/4
WORTHINGTON    LGT RAIN  33  33 100 MISG        N/A  VSB 1/4
JACKSON        FOG       32  32 100 CALM      29.37S VSB<1/4
TRACY          FOG       34  34 100 SE3       29.37S VSB 1/2
SLAYTON        FOG       32  32 100 S3        29.36S VSB 1/2
$$
MNZ065>067-074>077-082>085-091>093-211600-
   South Central Minnesota

CITY           SKY/WX    TMP DP  RH WIND       PRES   REMARKS
MANKATO        CLOUDY    35  34  96 E6        29.39F FOG     WCI  30
NEW ULM        DRZL/FOG  34  34 100 E6        29.39S VSB 3/4 WCI  29
ST JAMES       FOG       34  34 100 E5        29.39S VSB 1/2 WCI  30
FAIRMONT       FOG       34  33  96 CALM      29.38S VSB 1/4
GLENCOE        FOG       35  35 100 E5        29.40S VSB 1/2 WCI  31
OWATONNA       CLOUDY    36  34  93 E6        29.39S FOG
WASECA         FOG       34  34 100 NE5       29.40S VSB 1   WCI  30
ALBERT LEA     DRIZZLE   36  36 100 NE3       29.37F
$$
MNZ078>079-086>088-094>096-211600-
   Southeast Minnesota

CITY           SKY/WX    TMP DP  RH WIND       PRES   REMARKS
ROCHESTER      FOG       34  34 100 E7        29.39F VSB 1/4 WCI  28
RED WING       DRIZZLE   36  34  93 E7        29.42S
STANTON        LGT RAIN  35  34  94 NE3       29.40S
DODGE CENTER   DRIZZLE   34  34 100 CALM      29.39R
WINONA         CLOUDY    36  36 100 SE5       29.44S FOG
AUSTIN         FOG       34  34 100 E5        29.38S VSB 1   WCI  30
PRESTON        FOG       34  33  97 CALM      29.40S VSB<1/4
$$
ABBREVIATIONS USED IN REMARKS
   TC - TEMPERATURES IN CELSIUS
  WCI - WIND CHILL INDEX
   HX - HEAT INDEX
  VSB - VISIBILITY
$$




USA.gov is the U.S. government's official web portal to all federal, state and local government web resources and services.